TimePDT,TemperatureF,Dew PointF,Humidity,Sea Level PressureIn,VisibilityMPH,Wind Direction,Wind SpeedMPH,Gust SpeedMPH,PrecipitationIn,Events,Conditions,WindDirDegrees,DateUTC
12:53 AM,42.1,12.0,29,29.71,10.0,West,10.4,21.9,N/A,,Clear,270,2013-03-17 07:53:00
1:53 AM,39.0,15.1,38,29.72,10.0,SSW,5.8,-,N/A,,Clear,210,2013-03-17 08:53:00
2:53 AM,39.0,17.1,41,29.74,10.0,East,9.2,-,N/A,,Mostly Cloudy,100,2013-03-17 09:53:00
3:53 AM,39.0,18.0,43,29.76,10.0,ESE,5.8,-,N/A,,Overcast,110,2013-03-17 10:53:00
4:53 AM,39.0,17.1,41,29.78,10.0,ESE,4.6,-,N/A,,Overcast,110,2013-03-17 11:53:00
5:53 AM,32.0,19.9,61,29.82,10.0,Calm,Calm,-,N/A,,Clear,0,2013-03-17 12:53:00
6:53 AM,30.9,19.0,61,29.86,10.0,Calm,Calm,-,N/A,,Clear,0,2013-03-17 13:53:00
7:53 AM,33.1,19.9,59,29.89,10.0,Calm,Calm,-,N/A,,Clear,0,2013-03-17 14:53:00
8:53 AM,41.0,18.0,40,29.91,10.0,ESE,4.6,-,N/A,,Clear,110,2013-03-17 15:53:00
9:53 AM,45.0,19.9,37,29.92,10.0,ENE,6.9,-,N/A,,Clear,60,2013-03-17 16:53:00
10:53 AM,48.9,15.1,26,29.93,10.0,NE,6.9,-,N/A,,Clear,50,2013-03-17 17:53:00
11:53 AM,50.0,18.0,28,29.94,10.0,NNE,9.2,17.3,N/A,,Scattered Clouds,20,2013-03-17 18:53:00
1:53 PM,52.0,19.9,28,29.95,10.0,North,10.4,17.3,N/A,,Scattered Clouds,10,2013-03-17 20:53:00
2:53 PM,48.9,19.9,32,29.95,10.0,NNE,10.4,17.3,N/A,,Mostly Cloudy,20,2013-03-17 21:53:00
3:53 PM,51.1,19.0,28,29.96,10.0,NNE,8.1,17.3,N/A,,Mostly Cloudy,30,2013-03-17 22:53:00
4:53 PM,51.1,8.1,18,29.97,10.0,West,16.1,24.2,N/A,,Mostly Cloudy,280,2013-03-17 23:53:00
5:53 PM,48.0,9.0,21,29.99,10.0,West,11.5,19.6,N/A,,Clear,260,2013-03-18 00:53:00
6:53 PM,45.0,8.1,22,30.00,10.0,West,10.4,16.1,N/A,,Clear,280,2013-03-18 01:53:00
7:53 PM,42.1,10.0,27,30.00,10.0,West,9.2,-,N/A,,Clear,280,2013-03-18 02:53:00
8:53 PM,39.0,10.9,32,30.00,10.0,West,6.9,-,N/A,,Clear,280,2013-03-18 03:53:00
9:53 PM,33.1,14.0,46,30.01,10.0,Calm,Calm,-,N/A,,Partly Cloudy,0,2013-03-18 04:53:00
10:53 PM,33.1,15.1,48,30.01,10.0,West,4.6,-,N/A,,Partly Cloudy,260,2013-03-18 05:53:00
11:53 PM,30.0,15.1,54,30.02,10.0,South,4.6,-,N/A,,Scattered Clouds,170,2013-03-18 06:53:00